Theta_e
328 326 321 318 318 314 312 313 314 315 317 319 321 321 321 320 319 320 321 321 321 321 320 319 320 319 316 316 318 320 319 319 319 319 320 322 323 324 325 324 323 324
327 324 321 322 322 316 311 313 314 316 318 319 321 321 321 321 318 317 319 321 321 320 320 319 318 317 315 314 316 317 317 318 318 319 320 321 323 324 324 324 324 324
326 324 324 326 325 317 310 312 315 316 318 319 320 321 321 321 319 316 317 320 320 319 319 319 319 317 314 314 315 316 317 319 319 320 320 322 323 323 323 323 324 324
325 325 327 327 323 315 310 313 315 315 317 318 319 320 319 319 319 316 314 317 319 319 319 320 319 315 313 314 316 317 318 319 320 321 321 322 322 322 322 323 323 324
325 327 328 326 321 313 310 314 315 315 317 318 318 319 318 317 317 313 310 313 316 318 320 321 319 314 311 314 317 318 319 320 321 322 322 322 321 321 321 322 323 323
326 327 326 325 322 315 313 314 315 316 316 318 319 319 320 318 313 308 308 312 313 315 319 320 318 313 311 315 319 320 320 321 321 323 323 321 320 319 320 320 322 322
326 326 325 326 324 319 316 316 316 316 316 317 318 319 319 316 309 306 308 310 309 311 317 319 316 312 310 315 319 320 321 322 322 322 322 321 319 317 317 318 319 321
326 325 324 325 324 321 320 319 317 316 316 316 315 315 314 309 305 305 306 306 306 309 315 317 314 311 311 315 318 319 321 322 322 322 320 319 317 316 315 315 317 320
326 324 323 323 323 322 322 321 318 316 316 315 313 311 308 306 305 306 305 305 305 307 311 313 312 311 311 315 316 317 318 319 321 322 318 315 315 315 315 314 315 318
325 323 322 323 322 322 322 321 319 318 316 314 310 307 306 306 307 306 306 306 305 306 307 309 310 310 311 314 315 316 316 316 318 320 318 315 314 314 314 314 314 315
325 323 322 322 323 323 323 321 319 318 317 312 308 307 307 307 308 308 308 308 307 306 305 306 309 310 310 311 313 313 313 312 313 316 317 315 314 314 313 313 314 314
324 323 323 322 323 324 323 321 319 319 318 313 308 308 310 310 310 310 310 311 312 310 307 305 307 309 309 309 310 309 309 308 309 312 314 314 313 313 312 312 313 314
323 323 323 322 323 323 322 321 319 319 318 314 310 310 312 313 312 312 311 312 313 313 311 309 308 308 308 309 310 309 308 307 306 308 310 311 311 312 312 313 314 314
322 322 323 323 323 323 322 320 319 319 318 315 312 312 313 314 314 313 313 313 314 314 314 313 312 311 309 308 309 310 309 308 307 308 309 311 311 312 313 314 315 314
322 321 322 323 323 322 321 320 319 319 318 315 315 315 315 315 316 315 313 313 314 314 314 314 314 314 311 309 308 308 309 309 309 310 311 312 313 313 313 314 314 315
323 322 323 323 323 322 321 321 320 320 318 316 317 318 316 315 316 316 313 313 314 314 314 314 314 314 314 312 309 308 308 309 310 310 311 312 313 313 312 312 313 314
323 323 323 322 322 323 321 320 320 319 318 317 317 319 318 317 317 317 314 313 314 314 315 314 314 314 314 314 313 311 310 309 309 310 310 311 311 312 312 312 312 313
322 322 322 321 321 322 321 320 319 319 318 318 317 318 319 318 318 318 317 315 315 315 315 315 315 315 315 315 314 314 313 312 311 310 310 310 310 311 312 312 312 312
322 322 322 321 321 322 321 321 319 319 319 319 318 318 318 318 318 319 318 317 317 316 316 316 316 316 316 316 316 315 314 314 314 313 312 311 310 310 310 311 311 311
320 320 320 320 321 321 321 321 320 320 320 320 320 320 319 318 318 319 318 318 318 318 317 317 317 316 316 317 317 316 315 314 314 314 314 314 313 312 312 311 311 310
317 318 318 319 319 320 320 320 320 319 320 320 320 320 319 317 317 319 319 319 319 319 319 319 319 318 318 318 318 318 317 316 315 314 314 315 315 314 314 314 313 313
312 314 315 316 317 318 318 319 319 319 320 319 319 319 319 318 318 319 321 320 320 320 320 320 320 320 320 320 320 319 319 318 318 317 316 315 315 315 315 315 315 315
308 309 311 312 313 314 315 316 317 318 319 319 319 319 319 319 320 320 320 320 320 320 320 320 320 320 321 321 320 320 320 320 319 319 319 318 317 317 316 316 315 315
305 305 306 308 310 311 313 314 314 316 317 317 318 318 318 318 318 319 318 318 318 318 318 318 319 319 320 320 320 319 319 319 319 319 319 319 319 318 318 318 317 316
305 304 304 304 305 306 308 309 310 311 312 313 314 315 315 316 316 316 316 316 316 316 316 316 317 317 318 318 318 318 318 318 318 318 318 318 318 318 318 318 318 318
307 307 306 305 304 304 304 304 305 305 306 307 308 309 310 311 312 314 314 314 315 315 315 315 315 315 315 316 316 316 316 316 316 316 317 317 317 317 317 317 317 317
Wind_Speed
17 16 15 14 11 10 10 9 6 3 2 0 1 3 4 4 5 7 8 6 6 6 5 5 5 3 3 6 8 8 7 7 7 8 8 8 9 10 10 10 11 13
18 17 16 13 10 9 9 9 6 3 2 1 2 3 5 6 6 4 7 7 6 6 5 6 6 3 4 7 9 9 8 7 8 8 8 8 9 10 10 11 12 13
19 17 15 12 9 9 10 10 7 4 2 2 2 3 6 7 7 5 5 6 6 6 6 6 6 3 3 6 9 9 8 8 8 8 9 9 9 10 10 12 13 14
19 17 14 11 9 10 12 11 7 4 3 2 3 4 6 7 8 7 5 5 6 7 7 7 6 4 4 6 8 8 7 7 7 8 10 11 11 10 10 11 13 14
18 16 13 11 10 12 13 12 8 4 3 3 3 4 6 7 8 8 5 5 5 7 9 8 6 3 4 6 7 7 7 7 7 9 11 12 11 10 9 10 12 14
19 16 13 10 10 12 14 12 8 4 3 4 4 5 6 7 7 5 5 6 6 8 10 10 8 4 4 7 7 7 8 8 8 10 12 12 11 10 9 9 11 14
19 17 15 12 11 13 13 11 7 4 4 4 4 5 7 7 5 4 6 6 7 8 10 10 9 5 5 8 8 8 9 9 9 10 12 12 11 10 9 9 10 12
20 19 16 13 13 13 11 9 6 4 4 4 4 6 6 5 4 5 6 7 7 9 10 10 9 6 7 9 8 9 10 10 10 10 10 11 10 9 9 9 9 11
19 19 18 15 13 12 10 8 6 6 5 5 5 5 5 4 5 6 7 7 7 9 10 10 8 6 7 10 10 9 10 10 11 11 10 10 10 9 8 8 9 12
19 19 20 17 13 12 11 9 7 6 5 5 5 4 4 4 5 5 6 6 6 8 9 8 7 6 7 11 11 10 10 10 11 12 11 11 11 11 10 9 10 12
20 20 20 18 16 15 13 11 8 5 4 4 4 4 4 4 5 6 5 3 2 3 6 7 7 6 7 9 10 10 11 11 12 13 13 13 12 12 12 13 12 12
20 20 19 18 18 17 15 13 11 6 3 4 5 5 5 4 6 6 5 4 4 3 1 5 7 7 7 8 9 10 11 12 13 14 14 13 12 12 12 15 16 15
18 19 18 17 18 18 16 15 12 8 5 5 6 6 6 3 3 3 2 2 2 3 3 1 4 5 7 9 10 9 10 11 13 14 13 12 12 12 12 13 15 16
19 19 17 17 18 17 16 15 14 11 8 7 8 7 6 4 2 1 1 1 2 2 2 2 2 2 4 9 11 10 9 11 12 13 12 11 12 13 13 13 14 15
16 17 16 17 17 16 15 15 15 13 10 9 10 8 7 6 4 4 4 4 5 5 5 5 4 3 3 5 10 11 10 11 12 12 12 11 12 13 13 13 14 15
15 17 17 17 16 16 16 15 14 14 13 13 13 10 9 8 7 7 7 7 8 9 9 8 7 6 5 4 6 9 10 11 12 12 12 12 12 12 13 14 15 16
14 16 15 13 14 15 13 13 14 14 15 16 15 12 11 10 8 8 9 9 11 11 11 11 10 10 9 8 6 6 8 10 11 12 13 14 14 14 14 15 16 18
11 13 12 12 13 13 12 13 15 14 14 14 14 13 13 12 10 10 11 12 13 13 13 12 12 11 11 12 12 10 8 9 10 12 13 15 16 17 17 17 18 19
12 12 12 12 12 12 13 14 15 14 13 13 13 14 14 14 13 13 12 13 14 15 15 15 14 13 12 12 13 15 14 13 12 12 13 14 16 17 18 19 19 20
15 14 14 12 11 11 12 13 12 13 13 13 15 16 15 14 15 15 15 15 15 14 15 15 15 15 14 13 13 15 17 19 18 17 16 16 16 16 18 19 20 21
16 15 15 14 12 10 10 10 9 9 11 12 13 15 15 16 16 17 17 18 18 17 17 16 15 15 16 16 15 15 17 19 21 22 22 21 21 20 20 21 21 22
16 15 14 14 12 11 10 9 9 8 8 9 8 10 12 15 17 18 18 19 20 21 20 20 18 17 17 17 17 18 18 19 21 22 23 24 25 25 25 25 25 26
12 11 11 11 10 10 9 9 8 7 7 7 7 7 9 11 14 16 16 18 19 20 21 21 20 19 19 18 18 18 19 20 21 22 24 25 26 27 27 28 29 30
7 5 5 5 5 6 6 6 6 6 7 7 8 9 9 11 13 14 14 15 16 17 19 20 20 19 19 20 20 20 20 20 20 21 22 25 27 28 29 29 30 30
5 5 5 3 2 2 4 6 7 8 9 10 11 12 13 14 15 15 16 16 17 18 18 20 20 20 20 21 21 21 22 22 22 22 22 23 24 26 27 28 29 29
9 10 10 10 9 8 8 9 10 11 13 14 15 16 17 17 18 19 19 19 20 20 21 22 23 24 23 23 23 23 24 24 24 25 25 24 24 24 24 25 25 26
Wind_Direction
203 208 207 199 193 193 193 187 181 198 232 252 317 322 329 318 292 263 248 236 216 217 227 235 241 240 216 203 197 194 192 193 200 208 210 199 194 196 199 203 203 204
206 208 204 198 196 197 199 195 191 204 220 218 289 322 326 326 323 275 233 227 224 222 229 241 245 238 204 194 193 194 191 189 197 204 204 195 190 195 199 204 206 204
205 206 201 198 203 203 198 193 194 210 216 237 294 319 315 318 329 310 241 226 234 237 235 239 245 240 204 187 181 184 187 188 192 194 192 184 182 190 197 202 207 204
203 205 201 201 209 206 198 195 200 219 234 264 290 303 308 314 323 318 276 226 229 241 237 233 238 227 189 179 174 177 184 187 184 178 178 177 177 184 190 194 201 198
202 203 201 200 206 201 197 199 207 223 242 264 279 292 302 310 316 311 279 240 230 234 232 229 236 230 177 171 173 177 184 187 177 167 170 175 175 176 179 182 186 186
197 198 196 200 209 205 202 203 208 218 241 266 283 291 300 308 308 291 247 238 237 229 227 228 240 246 187 173 176 182 186 186 178 168 173 181 178 172 171 175 180 181
196 193 191 201 213 213 209 204 201 213 244 270 288 293 302 306 291 247 214 223 231 225 222 228 242 244 192 179 184 190 190 192 188 178 181 188 185 177 171 169 177 179
194 189 192 201 207 208 211 210 207 226 254 269 280 288 295 286 244 212 204 213 221 222 222 228 246 246 198 190 195 197 196 201 201 192 190 194 190 184 176 168 168 172
196 193 196 201 201 201 211 221 228 242 258 265 269 277 274 238 216 208 204 208 215 221 226 232 245 245 207 200 203 205 205 208 209 206 203 201 195 190 185 178 169 165
202 202 202 200 198 201 208 216 231 249 260 261 261 259 239 211 198 191 192 202 216 223 228 232 239 235 212 205 209 216 220 219 215 212 211 209 203 198 195 191 181 169
197 202 204 202 198 200 206 208 213 234 259 261 250 219 196 170 144 143 145 137 159 224 230 229 225 216 209 208 212 220 227 226 218 213 213 215 214 212 208 200 194 186
191 199 203 204 200 199 206 208 205 209 234 252 239 208 188 152 124 127 123 103 72 41 257 232 221 209 206 210 213 217 221 220 215 213 214 218 222 224 216 204 200 201
189 198 199 203 205 203 206 208 202 197 205 223 221 206 195 170 131 129 120 106 59 30 24 280 237 222 216 213 211 213 217 215 210 210 213 215 217 218 211 203 204 207
187 198 201 201 206 207 207 209 203 196 199 211 207 200 203 203 197 224 235 223 249 285 322 312 298 288 245 223 216 214 216 216 209 205 207 208 208 210 209 206 207 211
185 199 204 199 202 205 204 206 204 196 197 206 203 196 204 216 226 239 240 241 247 250 258 266 275 302 299 250 232 223 216 215 214 211 211 210 209 212 215 214 213 215
183 191 196 195 198 202 203 207 206 198 198 205 205 198 199 210 226 236 236 242 250 251 254 258 262 269 282 284 260 240 230 224 221 223 225 224 222 222 224 224 222 222
179 184 184 184 194 199 198 204 207 202 201 205 205 204 202 204 219 236 241 247 251 253 256 259 265 270 268 270 272 261 250 243 238 238 239 240 240 239 237 234 230 229
161 170 167 171 187 188 179 188 200 203 205 206 207 213 214 209 212 226 240 248 250 252 255 256 262 269 267 264 264 263 261 257 253 250 249 249 249 248 247 245 242 238
136 150 154 162 174 176 176 187 198 203 205 207 211 219 220 216 215 220 231 244 248 249 251 253 256 260 262 263 263 263 263 262 259 257 257 257 256 254 254 252 251 250
122 129 133 137 145 158 174 186 195 200 204 209 218 223 221 218 219 222 228 237 243 244 247 251 255 258 261 262 262 261 261 261 261 260 259 260 261 261 261 260 260 260
115 118 121 122 125 137 155 166 175 187 195 204 216 222 221 220 223 227 231 235 239 241 242 246 252 257 262 265 265 263 261 260 260 260 260 261 262 262 263 263 265 265
111 116 119 121 124 130 138 145 153 163 176 185 195 205 211 216 222 229 233 236 239 242 243 244 247 253 258 262 265 266 265 263 262 260 260 260 261 262 262 262 263 264
105 111 120 126 132 136 138 142 149 158 172 183 191 198 204 212 220 228 234 237 239 244 247 248 249 250 253 256 257 260 262 263 264 264 262 261 260 260 260 260 260 260
87 89 103 127 146 155 159 165 170 179 191 201 211 218 219 223 226 229 235 239 241 244 248 250 249 247 246 248 250 252 253 255 258 261 262 262 261 260 259 259 259 258
3 359 353 344 303 246 230 228 227 227 228 228 230 232 234 236 238 238 238 242 245 247 249 252 252 248 246 245 247 250 252 253 255 257 258 259 261 262 262 262 262 261
311 309 309 311 308 300 289 273 264 259 254 252 252 251 250 250 249 248 248 248 250 251 252 254 255 254 252 250 250 251 254 256 257 258 259 259 260 262 265 266 267 266